Flag for Spain Weather past 2 weeks in Almería, Spain

Now
52 °F

Passing clouds.


Feels Like: 50 °F
Forecast: 47 / 71 °F
Wind: 6 mph from Northwest

Location: Almeria / Aeropuerto

Current Time: Dec 18, 2014 at 8:33:00 AM

Latest Report: Dec 18, 2014 at 7:00 AM


Visibility: 25 mi

Pressure: 30.25 "Hg

Humidity: 73%

Dew point: 44 °F

Location of AlmeríaLocation

Historic Weather in Almería — Graph

°F

Almería temperature yesterday

Maximum temperature yesterday: 67 °F (at 2:00 PM)
Minimum temperature yesterday: 54 °F (at 11:00 PM)
Average temperature yesterday: 61 °F

Past Weeks' High & Low Weather Summary

 TemperatureHumidityPressure
High69 °F (Dec 9, 3:00 PM)94% (Dec 14, 12:00 PM)30.47 "Hg (Dec 14, 12:00 PM)
Low45 °F (Dec 10, 8:00 AM)26% (Dec 9, 3:00 PM)29.76 "Hg (Dec 3, 4:00 PM)
Average57 °F61%30.13 "Hg
* Reported Dec 3 7:00 AM — Dec 18 7:00 AM, Almería, Weather by CustomWeather, © 2014

Note: Actual official high and low records may vary slightly from our data, if they occured in-between our weather recording intervals... More about our weather records

Advertising

Almería weather history for previous 24 hours

 ConditionsComfort  
Time TempWeatherWind HumidityBarometerVisibility
7:00 AM
Dec 18
52 °FPassing clouds.6 mph73%30.25 "Hg25 mi
6:00 AM53 °FCool.8 mph70%30.24 "HgN/A
5:00 AM54 °FCool.8 mph71%30.24 "HgN/A
4:00 AM56 °FCool.10 mph67%30.25 "HgN/A
3:00 AM55 °FCool.12 mph71%30.26 "HgN/A
2:00 AM55 °FCool.10 mph75%30.25 "HgN/A
1:00 AM55 °FCool.10 mph79%30.27 "HgN/A
12:00 AM55 °FCool.7 mph80%30.28 "HgN/A
11:00 PM
Dec 17
54 °FCool.5 mph88%30.27 "HgN/A
10:00 PM56 °FPassing clouds.5 mph87%30.28 "Hg22 mi
9:00 PM56 °FCool.5 mph87%30.27 "HgN/A
8:00 PM57 °FCool.5 mph86%30.27 "HgN/A
7:00 PM60 °FPassing clouds.1 mph83%30.24 "Hg28 mi
6:00 PM62 °FCool.3 mph77%30.23 "HgN/A
5:00 PM65 °FMild.7 mph75%30.21 "HgN/A
4:00 PM66 °FPassing clouds.7 mph74%30.20 "Hg31 mi
3:00 PM67 °FMild.5 mph60%30.20 "HgN/A
2:00 PM67 °FMild.5 mph48%30.21 "HgN/A
1:00 PM66 °FPassing clouds.7 mph52%30.22 "Hg31 mi
12:00 PM66 °FMild.8 mph45%30.24 "HgN/A
11:00 AM64 °FMild.3 mph44%30.23 "HgN/A
10:00 AM60 °FPassing clouds.6 mph42%30.21 "Hg31 mi
8:00 AM59 °FRefreshingly cool.10 mph42%30.16 "HgN/A
Weather by CustomWeather, © 2014

See weather overviewHow to use our weather pages